Weather History for Spirit of St Louis, MO

Change the Weather History Date:

Saturday, May 25, 2013

  Actual Average Record
Temperature  
Mean Temperature 56 °F -  
Max Temperature 69 °F 75 °F 91 °F (2006)
Min Temperature 46 °F 53 °F 46 °F (2001)
Degree Days  
Heating Degree Days 9    
Growing Degree Days 6 (Base 50)    
Moisture  
Dew Point 51 °F    
Average Humidity 74    
Maximum Humidity 90    
Minimum Humidity 47    
Precipitation  
Precipitation 0.21 in - - ()
Sea Level Pressure  
Sea Level Pressure 30.24 in    
Wind  
Wind Speed 3 mph (ESE)    
Max Wind Speed 9 mph    
Max Gust Speed -    
Visibility 9 miles    
Events Rain , Thunderstorm    
Averages and records for this station are not official NWS values.
T = Trace of Precipitation, MM = Missing Value Source: NWS Daily Summary

Daily Weather History Graph

Daily Weather History Graph

Search for Another Location

Airport:

Trip Planner

Search our weather history database for the weather conditions in past years. The results will help you decide how hot, cold, wet, or windy it might be!

Date:

Astronomy

May. 25, 2013 Rise Set
Actual Time 5:43 AM CDT 8:16 PM CDT
Civil Twilight 5:12 AM CDT 8:47 PM CDT
Nautical Twilight 4:34 AM CDT 9:25 PM CDT
Astronomical Twilight 3:51 AM CDT 10:08 PM CDT
Moon 9:04 PM CDT (5/25) 6:09 AM CDT (5/25)
Length of Visible Light 15h 34m
Length of Day
14h 33m
Full, 100% of the Moon is Illuminated
May 25
Full
May 31
Last Quarter
Jun 8
New
Jun 16
First Quarter
Jun 23
Full

Hourly Weather History & Observations

Time (CDT) Temp. Dew Point Humidity Pressure Visibility Wind Dir Wind Speed Gust Speed Precip Events Conditions
12:54 AM 48.9 °F 44.1 °F 83% 30.27 in 10.0 mi Calm Calm - N/A   Clear
1:54 AM 50.0 °F 46.0 °F 86% 30.26 in 10.0 mi Calm Calm - N/A   Clear
2:54 AM 46.9 °F 44.1 °F 90% 30.27 in 10.0 mi Calm Calm - N/A   Clear
3:54 AM 48.0 °F 44.1 °F 86% 30.25 in 10.0 mi Calm Calm - N/A   Clear
4:54 AM 48.9 °F 45.0 °F 86% 30.27 in 10.0 mi Calm Calm - N/A   Clear
5:54 AM 52.0 °F 45.0 °F 77% 30.28 in 10.0 mi Calm Calm - N/A   Clear
6:54 AM 53.1 °F 46.0 °F 77% 30.32 in 10.0 mi ESE 3.5 mph - N/A   Overcast
7:54 AM 55.9 °F 48.0 °F 75% 30.32 in 10.0 mi ESE 3.5 mph - N/A   Mostly Cloudy
8:54 AM 62.1 °F 46.0 °F 56% 30.30 in 10.0 mi SE 8.1 mph - N/A   Mostly Cloudy
9:54 AM 64.9 °F 44.1 °F 47% 30.28 in 10.0 mi SE 9.2 mph - N/A   Mostly Cloudy
10:54 AM 66.0 °F 46.9 °F 50% 30.30 in 10.0 mi Variable 6.9 mph - N/A   Overcast
11:54 AM 64.9 °F 48.0 °F 54% 30.30 in 10.0 mi East 5.8 mph - N/A   Overcast
12:35 PM 64.4 °F 48.2 °F 56% 30.29 in 10.0 mi ESE 4.6 mph - N/A Thunderstorm Overcast
12:54 PM 64.0 °F 48.9 °F 58% 30.27 in 10.0 mi ESE 6.9 mph - 0.00 in Rain , Thunderstorm Light Thunderstorms and Rain
1:54 PM 59.0 °F 55.0 °F 87% 30.29 in 5.0 mi Calm Calm - 0.10 in Rain , Thunderstorm Rain
2:03 PM 59.0 °F 55.4 °F 88% 30.28 in 2.5 mi ENE 5.8 mph - 0.06 in Rain Heavy Rain
2:21 PM 60.8 °F 55.4 °F 82% 30.26 in 7.0 mi East 5.8 mph - 0.11 in Rain Light Rain
2:31 PM 60.8 °F 55.4 °F 82% 30.26 in 10.0 mi East 4.6 mph - 0.11 in Thunderstorm Overcast
2:54 PM 61.0 °F 55.9 °F 83% 30.25 in 10.0 mi East 5.8 mph - 0.11 in   Overcast
3:54 PM 64.9 °F 55.0 °F 70% 30.19 in 10.0 mi Variable 5.8 mph - N/A   Overcast
4:54 PM 66.0 °F 54.0 °F 65% 30.17 in 10.0 mi SE 6.9 mph - N/A   Clear
5:54 PM 66.9 °F 55.0 °F 66% 30.15 in 10.0 mi SSE 3.5 mph - N/A   Overcast
6:54 PM 66.9 °F 57.0 °F 70% 30.12 in 10.0 mi Calm Calm - N/A   Overcast
7:54 PM 66.0 °F 57.9 °F 75% 30.13 in 10.0 mi East 4.6 mph - N/A   Overcast
8:54 PM 64.9 °F 57.9 °F 78% 30.12 in 10.0 mi Calm Calm - N/A   Overcast
9:54 PM 64.9 °F 57.9 °F 78% 30.16 in 10.0 mi East 3.5 mph - N/A   Overcast
10:54 PM 61.0 °F 55.0 °F 81% 30.17 in 10.0 mi Calm Calm - N/A   Clear
11:54 PM 61.0 °F 55.0 °F 81% 30.17 in 10.0 mi East 4.6 mph - N/A   Partly Cloudy